Sault Ste Marie, MI

9:18 PM EST on January 16, 2018 (GMT -0500)
Sault Ste Marie Municipal / Sanderson Field

Weather History for KANJ - October, 2012

Change the Weather History Date:

Monday, October 29, 2012

  Actual Average Record
Temperature  
Mean Temperature 38 °F 41 °F  
Max Temperature 43 °F 48 °F 69 °F (1989)
Min Temperature 33 °F 34 °F 17 °F (1925)
Degree Days  
Heating Degree Days 27 24  
Month to date heating degree days 523 554  
Since 1 July heating degree days 851 955  
Cooling Degree Days 0 0  
Month to date cooling degree days 0 0  
Year to date cooling degree days 402 195  
Moisture  
Dew Point 18 °F    
Average Humidity 47    
Maximum Humidity 61    
Minimum Humidity 33    
Precipitation  
Precipitation 0.00 in 0.12 in 1.23 in (1932)
Month to date precipitation 4.79 3.57  
Year to date precipitation 23.77 26.56  
Snow  
Snow 0.00 in 0.10 in 2.00 in (1933)
Month to date snowfall 5.0 1.3  
Since 1 July snowfall 5.0 1.3  
Snow Depth 0.00 in    
Sea Level Pressure  
Sea Level Pressure 30.25 in    
Wind  
Wind Speed 11 mph (North)    
Max Wind Speed 18 mph    
Max Gust Speed 28 mph    
Visibility 10 miles    
Events      
T = Trace of Precipitation, MM = Missing Value Source: NWS Daily Summary

Daily Weather History Graph

Daily Weather History Graph

Search for Another Location

Airport or City:

Trip Planner

Search our weather history database for the weather conditions in past years. The results will help you decide how hot, cold, wet, or windy it might be!

Date:

Astronomy

Oct. 29, 2012 Rise Set
Actual Time 8:15 AM EDT 6:26 PM EDT
Civil Twilight 7:44 AM EDT 6:57 PM EDT
Nautical Twilight 7:08 AM EDT 7:32 PM EDT
Astronomical Twilight 6:33 AM EDT 8:07 PM EDT
Moon 6:14 PM EDT (10/29) 8:06 AM EDT (10/29)
Length of Visible Light 11h 13m
Length of Day
10h 10m
Full, 100% of the Moon is Illuminated
Oct 29
Full
Oct 29
Full
Nov 6
Last Quarter
Nov 13
New
Nov 20
First Quarter

Hourly Weather History & Observations

Time (EDT) Temp. Windchill Dew Point Humidity Pressure Visibility Wind Dir Wind Speed Gust Speed Precip Events Conditions
12:55 AM 36.0 °F 30.3 °F 19.9 °F 52% 30.32 in 10.0 mi North 6.9 mph - N/A   Clear
1:55 AM 35.1 °F 30.1 °F 19.9 °F 54% 30.32 in 10.0 mi North 5.8 mph - N/A   Clear
2:55 AM 34.0 °F 28.8 °F 19.0 °F 54% 30.32 in 10.0 mi North 5.8 mph - N/A   Clear
3:55 AM 33.1 °F 26.9 °F 19.0 °F 56% 30.30 in 10.0 mi North 6.9 mph - N/A   Clear
4:55 AM 33.1 °F 25.5 °F 18.0 °F 54% 30.30 in 10.0 mi North 9.2 mph - N/A   Clear
5:55 AM 33.1 °F 26.1 °F 19.0 °F 56% 30.30 in 10.0 mi North 8.1 mph - N/A   Clear
6:55 AM 33.1 °F 26.9 °F 19.9 °F 59% 30.30 in 10.0 mi North 6.9 mph - N/A   Clear
7:55 AM 33.1 °F 26.1 °F 19.9 °F 59% 30.31 in 10.0 mi North 8.1 mph - N/A   Clear
8:55 AM 34.0 °F 28.0 °F 21.0 °F 59% 30.31 in 10.0 mi North 6.9 mph - N/A   Clear
9:55 AM 35.1 °F 27.9 °F 21.0 °F 57% 30.32 in 10.0 mi North 9.2 mph - N/A   Clear
10:55 AM 37.0 °F 28.1 °F 21.0 °F 52% 30.30 in 10.0 mi North 15.0 mph 19.6 mph N/A   Clear
11:55 AM 39.0 °F 31.0 °F 19.9 °F 46% 30.29 in 10.0 mi North 13.8 mph 20.7 mph N/A   Clear
12:55 PM 39.9 °F 32.9 °F 16.0 °F 38% 30.27 in 10.0 mi North 11.5 mph 21.9 mph N/A   Clear
1:55 PM 42.1 °F 34.9 °F 17.1 °F 37% 30.25 in 10.0 mi North 13.8 mph 19.6 mph N/A   Clear
2:55 PM 43.0 °F 37.2 °F 16.0 °F 34% 30.23 in 10.0 mi North 10.4 mph 19.6 mph N/A   Clear
3:55 PM 43.0 °F 36.4 °F 15.1 °F 32% 30.22 in 10.0 mi North 12.7 mph - N/A   Clear
4:55 PM 42.1 °F 36.1 °F 15.1 °F 34% 30.22 in 10.0 mi North 10.4 mph 21.9 mph N/A   Clear
5:55 PM 41.0 °F 32.8 °F 15.1 °F 35% 30.21 in 10.0 mi North 16.1 mph 24.2 mph N/A   Clear
6:55 PM 39.9 °F 33.4 °F 14.0 °F 35% 30.20 in 10.0 mi North 10.4 mph 21.9 mph N/A   Clear
7:55 PM 39.0 °F 31.0 °F 12.9 °F 34% 30.19 in 10.0 mi North 13.8 mph 24.2 mph N/A   Clear
8:55 PM 37.9 °F 28.9 °F 15.1 °F 39% 30.18 in 10.0 mi North 16.1 mph 21.9 mph N/A   Clear
9:55 PM 37.0 °F 28.1 °F 17.1 °F 44% 30.17 in 10.0 mi North 15.0 mph 20.7 mph N/A   Clear
10:55 PM 36.0 °F 29.0 °F 21.0 °F 55% 30.15 in 10.0 mi North 9.2 mph 20.7 mph N/A   Clear
11:55 PM 35.1 °F 25.9 °F 21.9 °F 59% 30.09 in 10.0 mi North 13.8 mph 24.2 mph N/A   Clear